Regional Weather Roundup
Issued by NWS

Home | Current Version | Previous Version | Graphics & Text | Print | Product List | Glossary On
Versions: 1 2 3 4 5 6 7 8 9 10 11 12 13 14 15 16 17 18 19 20 21 22 23 24 25 26 27 28 29 30 31 32 33 34 35 36 37 38 39 40 41 42 43 44 45 46 47 48 49 50
000
ASUS43 KFSD 171302
RWRSD

WEATHER ROUNDUP FOR SOUTH DAKOTA
NATIONAL WEATHER SERVICE SIOUX FALLS SD
800 AM CDT THU APR 17 2014

NOTE: "FAIR" INDICATES FEW OR NO CLOUDS BELOW 12,000 FEET WITH NO
SIGNIFICANT WEATHER AND/OR OBSTRUCTIONS TO VISIBILITY.


SDZ001>005-009-010-012>017-171400-
NORTHWEST AND NORTH CENTRAL SOUTH DAKOTA

CITY           SKY/WX    TMP DP  RH WIND       PRES   REMARKS
FAITH            N/A     29  22  75 SE13      30.20S WCI  19
MOBRIDGE       CLOUDY    25  16  68 SE6       30.27S WCI  18
$$

SDZ012>016-024>037-041>051-057-063-072>074-171400-
SOUTHWEST AND SOUTH CENTRAL SOUTH DAKOTA

CITY           SKY/WX    TMP DP  RH WIND       PRES   REMARKS
RAPID CTY ARPT CLOUDY    31  27  85 SE14      30.15S WCI  21
PIERRE         CLOUDY    25  20  81 NE5       30.29R WCI  19
CUSTER         CLOUDY    27  25  92 SW3       30.07S FOG
ELLSWORTH AFB  CLOUDY    30  27  86 SE14      30.13S WCI  20
PHILIP         PTCLDY    30  24  78 E6        30.25R WCI  24
PINE RIDGE     CLOUDY    31  27  85 SE6       30.17R WCI  25
WINNER         FAIR      22  18  85 S3        30.29S
$$

SDZ004>011-016>023-039-040-171400-
NORTHEAST SOUTH DAKOTA

CITY           SKY/WX    TMP DP  RH WIND       PRES   REMARKS
ABERDEEN       SUNNY     20  17  88 N8        30.34R WCI  10
WATERTOWN      SUNNY     16  13  88 N8        30.28R WCI   5
SISSETON         N/A     23  17  78 NW13      30.31R WCI  11
$$

SDZ017-020-022-023-036>040-048>070-171400-
SOUTHEAST SOUTH DAKOTA

CITY           SKY/WX    TMP DP  RH WIND       PRES   REMARKS
SIOUX FALLS    MOSUNNY   23  19  85 NW6       30.28R WCI  16
HURON          SUNNY     20  17  88 NW7       30.34R WCI  11
CHAMBERLAIN      N/A     25  22  88 CALM      30.31S
MITCHELL       SUNNY     23  20  88 NW5       30.34R WCI  17
YANKTON        SUNNY     25  21  86 NW12      30.32R WCI  14
$$

ABBREVIATIONS USED IN REMARKS
   TC - TEMPERATURE IN CELSIUS
  WCI - WIND CHILL INDEX
   HX - HEAT INDEX
  VSB - VISIBILITY




USA.gov is the U.S. government's official web portal to all federal, state and local government web resources and services.